Theta_e
299 300 301 302 302 302 303 304 305 305 305 305 306 307 307 309 309 307 302 304 298 294 297 298 298 293 292 291 286 289 290 290 289 284 285 285 283 289 289 291 289 287 286 284 286 283 280 297 297 290 291 294 294 291
299 300 301 302 302 302 302 302 303 305 305 305 305 306 306 308 308 309 301 303 304 298 297 299 300 301 298 297 292 290 289 290 290 285 288 288 284 288 288 278 295 287 290 287 287 283 292 296 296 296 295 293 291 291
299 299 299 300 302 302 302 302 302 303 305 305 305 305 305 307 308 307 303 303 301 296 296 294 295 299 300 299 300 291 292 295 294 294 290 287 280 285 285 287 291 294 297 292 291 296 295 298 297 297 295 293 293 292
299 299 299 299 301 302 301 301 301 302 303 305 305 305 305 306 307 308 303 303 301 296 289 291 300 298 302 300 300 299 296 297 296 295 291 288 284 287 284 288 291 292 296 294 293 296 297 298 298 295 295 294 293 292
299 299 299 300 301 302 302 302 302 302 302 304 305 305 305 306 306 306 305 303 304 296 289 292 297 298 300 301 299 299 298 295 293 290 288 288 291 289 286 286 284 290 290 287 284 294 292 292 295 296 294 293 292 291
299 299 299 300 301 302 302 302 302 302 302 303 305 304 305 305 306 302 295 303 304 302 293 288 295 298 300 300 298 297 297 295 293 290 289 291 294 289 286 285 290 290 293 293 292 297 293 293 295 296 293 293 293 291
299 299 300 301 301 301 302 302 303 303 302 304 304 304 304 304 301 297 295 300 304 303 293 288 289 298 300 299 298 295 294 292 290 291 290 286 287 291 288 285 289 294 296 293 295 294 291 293 291 294 294 295 295 293
299 300 300 301 301 301 302 303 303 303 303 304 304 304 304 304 302 299 302 305 304 298 296 287 286 293 299 293 291 296 293 294 293 291 291 288 290 289 284 288 290 296 295 293 293 293 293 293 292 293 293 292 291 291
299 300 300 300 301 301 301 302 303 304 304 303 303 303 301 299 296 298 307 304 301 296 289 289 286 282 297 293 293 293 291 287 293 288 289 288 284 284 287 288 290 293 294 290 293 293 293 291 291 291 291 290 289 289
299 300 300 300 301 301 301 302 303 304 303 302 300 296 291 297 306 305 297 293 292 293 291 287 286 289 294 292 290 290 290 287 283 287 291 285 282 289 291 292 295 297 292 293 290 290 290 290 290 290 289 290 290 290
300 300 300 300 301 301 301 303 303 302 301 297 293 291 297 303 296 292 287 287 288 284 288 289 286 288 295 288 288 289 287 288 283 286 286 286 285 287 292 295 294 294 295 294 295 294 293 292 290 290 290 290 289 289
300 300 300 300 301 301 302 304 303 299 297 296 296 298 297 292 289 287 285 287 285 282 283 282 284 291 293 295 288 289 286 287 282 290 287 282 285 292 295 294 295 293 293 293 294 293 292 292 291 291 289 288 288 289
299 300 300 300 301 302 303 303 302 302 300 297 292 289 289 287 283 283 280 283 282 285 285 288 287 289 288 292 287 287 283 283 292 287 285 286 291 295 295 296 293 292 293 293 292 292 292 291 291 290 289 289 290 288
300 300 301 301 302 302 302 302 302 301 297 290 287 281 285 282 285 284 284 285 288 288 287 287 287 287 290 286 288 284 286 287 283 282 283 289 295 294 293 292 291 291 292 291 290 290 289 288 287 289 290 290 289 287
300 300 301 302 303 302 302 302 303 300 294 287 288 283 284 289 290 292 293 294 293 293 291 289 289 287 285 285 286 285 283 283 284 285 288 292 292 291 290 290 290 289 290 289 288 288 287 287 286 286 287 288 288 286
299 300 299 302 302 302 302 302 300 298 295 291 289 286 289 289 290 291 293 293 295 294 294 292 286 285 284 284 283 282 283 283 285 290 293 294 290 289 289 290 290 290 289 288 288 288 287 286 285 284 286 287 285 285
299 296 299 301 302 302 302 298 296 292 290 289 288 291 290 288 288 293 295 294 295 292 289 289 285 284 288 285 285 289 287 287 291 291 293 292 290 289 289 289 289 289 288 288 287 286 286 286 284 284 283 284 284 284
292 296 299 300 301 299 297 297 293 290 287 288 286 288 291 293 293 292 296 295 294 293 292 289 293 286 285 284 286 290 292 291 291 292 292 292 291 291 291 290 290 289 288 287 286 285 284 283 282 281 283 284 283 283
294 297 299 300 300 296 292 292 293 286 286 287 288 290 291 292 293 292 291 295 297 297 295 292 288 287 288 292 291 293 291 291 290 291 291 291 291 289 289 289 288 287 286 284 284 283 283 283 282 282 282 282 281 282
299 300 301 301 301 293 290 289 294 288 286 290 289 290 290 289 293 290 290 292 295 293 291 289 288 293 293 295 297 294 292 293 293 290 289 290 291 290 289 288 286 284 284 283 283 283 282 282 282 282 282 282 281 280
298 299 301 300 296 295 292 290 289 289 290 291 293 292 289 290 289 289 291 296 292 290 289 291 291 297 299 301 297 294 292 293 292 291 289 287 287 288 286 285 285 285 284 283 282 283 283 281 280 281 281 281 280 280
296 301 297 297 293 293 290 294 290 294 292 292 292 291 289 287 285 287 294 291 290 290 291 292 294 299 299 299 295 294 292 292 290 290 289 289 286 285 284 285 285 284 284 283 283 282 281 280 281 281 281 281 281 280
298 298 295 293 290 288 288 295 291 292 288 290 290 287 287 288 291 291 289 291 289 292 294 294 296 299 299 296 294 293 292 291 289 288 288 287 287 287 286 285 287 285 283 283 283 283 281 282 282 281 281 280 280 280
299 293 289 288 288 286 292 290 291 289 289 290 289 287 287 290 293 290 287 286 289 292 293 295 296 294 292 293 291 291 290 290 288 287 288 288 287 286 287 287 287 286 285 283 283 282 282 282 282 281 280 279 279 279
288 287 288 284 290 288 288 288 287 284 286 289 287 288 289 291 286 286 284 285 294 290 293 296 296 294 291 290 290 290 291 291 288 286 286 288 286 286 285 285 285 285 286 284 282 282 280 280 280 280 280 279 278 278
283 287 285 286 285 286 288 285 286 285 284 284 286 288 288 286 286 284 290 293 295 294 296 296 295 291 290 290 288 289 289 290 290 286 285 287 288 287 285 283 282 282 285 285 283 281 280 280 280 280 280 280 280 278
283 284 288 291 289 289 289 290 291 288 285 286 286 287 285 284 284 289 295 297 296 298 298 299 297 292 289 288 288 288 289 289 289 288 287 286 286 287 288 285 284 284 285 285 284 283 281 280 280 280 279 279 279 279
287 288 286 287 288 289 288 288 287 286 289 290 290 288 287 284 283 291 293 297 298 300 298 296 294 293 290 290 287 286 285 286 286 286 286 284 284 284 286 286 286 285 285 285 284 283 282 281 280 279 279 278 277 278
286 288 290 287 287 286 287 287 290 292 293 291 289 287 289 292 291 293 292 292 299 300 299 294 291 291 289 288 287 286 287 288 287 285 283 281 281 282 283 284 284 284 283 281 281 282 281 280 279 279 278 278 277 277
285 287 286 289 286 284 288 290 291 293 292 291 289 288 288 288 290 295 295 297 298 298 299 295 292 290 287 287 286 288 289 289 289 288 284 282 282 281 282 282 282 282 282 281 280 279 279 279 278 278 277 276 276 276
288 287 286 286 285 287 289 291 291 291 289 287 287 286 286 288 291 295 296 298 298 298 298 296 294 292 290 289 288 288 287 289 289 288 285 284 283 282 282 282 282 282 281 280 280 279 278 277 277 276 276 275 275 275
286 287 287 286 285 288 290 289 285 283 283 284 281 284 286 286 287 291 294 296 295 295 292 297 296 292 293 293 292 292 289 291 288 285 285 284 283 283 282 281 281 281 280 280 279 278 278 277 276 276 276 276 275 275
285 288 288 287 285 285 285 283 283 283 286 285 285 287 288 287 286 289 294 295 295 296 295 295 295 295 295 296 294 291 289 290 286 284 284 284 283 282 282 281 281 281 280 278 278 277 277 276 275 275 274 273 274 274
Wind_Speed
22 21 21 19 19 20 20 20 18 18 18 18 17 17 17 14 10 3 3 3 3 3 4 3 2 2 1 1 2 2 2 2 2 2 3 1 1 2 2 2 5 4 6 4 5 5 7 2 2 4 3 3 5 4
22 23 22 21 20 20 19 20 20 19 17 17 17 16 16 15 14 4 2 1 3 3 4 2 5 4 4 5 4 2 2 2 3 3 0 2 0 1 1 1 2 4 4 4 6 5 3 2 2 3 3 5 4 6
22 22 22 21 22 20 18 20 21 20 20 15 15 15 16 16 13 7 2 2 1 1 3 3 5 1 2 5 4 4 2 3 1 1 2 1 1 0 1 2 0 4 1 2 2 3 3 2 7 4 3 4 7 6
24 22 23 22 21 21 19 18 21 20 20 17 14 13 14 14 12 8 2 0 1 2 2 4 2 2 2 4 4 2 6 4 4 2 2 1 1 3 2 2 2 3 4 5 2 2 2 2 5 6 6 9 9 6
24 24 23 22 23 21 20 20 19 20 19 20 15 11 12 13 10 4 2 3 2 1 1 3 5 2 1 6 7 6 7 4 2 2 1 3 2 1 2 0 4 4 5 4 6 7 5 3 8 10 10 7 7 6
23 22 23 23 22 21 21 22 20 19 19 19 15 8 10 10 9 1 2 1 2 3 0 1 3 4 4 7 9 7 4 3 2 3 1 2 2 3 2 3 6 4 3 6 4 5 5 6 8 5 7 7 6 6
22 22 23 23 22 22 23 21 24 20 17 17 10 7 7 6 2 1 1 1 3 2 1 1 1 2 4 4 2 3 4 2 3 2 2 2 2 3 3 3 5 3 4 3 6 10 6 3 5 7 8 7 7 6
23 23 23 20 22 22 22 20 23 13 14 13 8 7 7 5 5 3 1 4 4 2 0 1 3 2 3 2 2 1 2 2 2 2 2 2 2 3 5 11 6 2 2 4 5 5 7 11 8 7 6 6 6 5
22 23 23 21 21 21 21 21 22 14 8 5 5 5 2 3 3 1 9 8 2 2 2 1 2 3 2 2 2 1 2 2 1 2 2 3 3 6 8 6 6 7 4 8 9 12 12 11 9 7 6 6 6 4
22 23 21 21 21 21 20 21 22 9 3 1 1 2 2 2 9 9 2 2 2 1 0 1 1 2 1 1 2 2 1 1 2 3 2 4 5 8 7 6 6 7 14 15 15 7 9 8 8 7 5 5 5 4
21 22 21 22 22 21 22 23 15 3 2 1 1 0 1 4 3 2 2 1 2 1 1 1 2 2 2 2 2 1 2 1 2 2 3 2 4 5 6 8 3 11 13 6 7 10 8 12 10 8 6 5 6 6
22 20 22 22 20 21 23 13 6 2 1 0 1 1 2 2 1 2 2 2 2 3 2 4 3 0 2 2 2 2 1 2 3 4 3 3 5 2 8 11 8 8 10 7 12 12 10 9 8 8 7 6 6 6
22 22 22 21 20 20 18 6 7 4 4 2 2 1 2 1 2 3 5 2 2 3 4 3 3 2 1 2 1 2 2 3 2 3 3 5 1 5 9 11 10 7 8 11 11 9 9 7 7 7 7 5 7 6
23 24 24 22 19 12 4 4 3 5 1 1 1 2 2 2 3 3 2 2 2 3 5 4 3 2 2 2 1 3 3 1 3 4 5 2 6 8 9 9 11 10 11 12 11 10 9 8 7 6 6 6 8 7
22 24 23 11 7 3 1 4 4 1 0 1 1 2 4 2 3 1 1 2 2 4 4 4 3 2 1 2 2 1 3 4 4 3 1 4 10 12 9 11 11 10 10 9 7 8 9 8 8 7 6 7 8 7
23 19 7 22 5 3 4 4 2 1 2 2 2 2 2 3 1 2 2 2 2 3 2 2 2 2 3 3 4 6 4 4 3 1 2 7 10 9 10 10 9 9 9 7 6 6 8 8 8 7 7 8 7 7
16 2 18 21 10 7 8 3 2 2 2 3 1 2 3 2 3 2 1 3 3 3 2 2 4 4 3 4 4 4 4 2 2 1 3 8 11 10 9 10 9 9 9 8 6 7 7 7 8 9 11 5 7 7
3 6 17 16 9 2 2 2 2 2 2 2 2 3 3 2 3 1 1 3 3 2 2 1 0 2 3 3 2 2 2 2 3 4 7 9 8 11 10 10 9 9 9 7 8 6 7 7 7 5 8 7 7 6
7 10 15 13 7 2 2 0 1 2 3 2 3 3 3 2 1 1 3 2 2 3 1 2 3 2 2 1 2 2 1 2 5 4 5 6 8 10 8 9 9 8 9 7 6 5 4 5 5 5 5 5 5 3
16 12 10 5 2 1 2 1 0 2 3 3 2 3 1 1 1 2 3 1 2 2 2 2 3 2 1 4 3 2 2 6 8 8 6 4 5 10 8 8 6 7 7 7 5 6 6 5 4 4 4 5 6 4
7 3 1 1 1 1 1 1 2 3 3 3 3 2 1 1 1 1 2 2 1 2 2 4 3 2 2 2 1 5 4 7 8 8 7 4 3 7 6 5 6 5 6 5 6 4 5 4 4 4 5 5 4 4
3 8 1 1 1 1 2 3 2 2 2 2 3 2 1 1 1 2 2 2 3 3 3 2 2 1 1 0 3 4 6 8 7 7 9 9 5 5 4 5 6 4 5 5 6 6 4 4 4 5 7 5 6 4
6 1 1 1 2 2 3 1 3 2 2 1 2 2 1 1 0 1 2 2 4 3 3 3 2 2 2 3 6 6 6 9 6 5 5 5 4 4 6 4 6 7 5 2 3 5 6 5 7 7 6 5 5 4
3 1 2 2 3 3 2 2 2 2 3 1 1 2 2 2 1 0 3 2 4 2 1 3 2 3 2 4 3 4 4 5 6 5 5 7 5 2 3 4 4 4 5 7 5 5 6 5 8 6 6 6 5 5
3 2 2 3 2 3 2 1 1 1 2 1 2 2 2 2 1 2 2 4 2 2 2 1 3 1 3 2 3 4 3 7 7 6 1 4 6 5 5 4 4 4 7 8 5 6 5 5 5 6 6 6 7 7
3 3 4 2 2 2 1 1 2 2 2 2 2 1 1 1 2 2 1 2 2 1 2 3 3 2 1 2 5 4 4 4 7 5 2 4 6 8 7 8 6 2 2 5 9 8 7 6 6 7 6 6 7 7
3 3 4 3 2 1 2 2 3 2 3 2 1 1 1 1 3 2 2 2 2 2 1 2 1 3 4 4 4 4 5 4 4 5 5 4 4 2 7 9 8 5 6 8 8 10 10 8 7 7 6 5 4 5
3 3 3 1 1 2 2 1 3 1 2 3 3 0 2 1 2 2 2 3 2 2 4 4 4 1 4 4 6 8 7 7 9 9 8 8 6 4 4 4 5 13 7 7 8 8 8 8 8 8 7 7 5 4
3 3 2 3 4 3 3 1 2 2 2 2 1 1 2 3 2 2 3 3 3 2 3 4 4 5 6 5 4 4 8 10 11 9 6 4 3 2 3 5 6 7 7 8 9 8 10 9 8 7 8 7 6 5
5 4 3 3 3 3 2 3 3 2 1 2 1 2 2 3 3 2 2 2 1 2 3 4 4 5 4 6 7 4 3 3 2 7 9 7 5 5 5 6 7 6 7 9 10 10 12 11 10 7 7 6 5 5
2 2 2 1 1 1 2 1 1 1 1 1 1 2 3 3 3 2 3 3 3 3 3 5 3 4 8 7 7 8 3 1 5 7 6 7 9 8 7 7 6 7 8 9 9 8 8 7 6 7 7 7 7 5
2 3 2 2 2 2 3 2 3 2 2 2 2 1 3 2 3 2 1 2 2 2 2 6 7 6 5 5 3 2 7 6 5 7 11 9 8 8 9 7 7 7 8 9 8 8 9 9 7 7 7 8 7 6
1 1 2 2 2 2 1 2 2 3 2 2 3 2 2 2 4 3 2 1 3 4 4 4 4 5 6 6 5 5 5 5 8 9 10 11 12 11 8 7 7 8 10 8 7 8 9 9 7 7 6 6 5 5
Wind_Direction
324 320 314 316 321 325 326 330 323 320 321 323 328 330 334 339 323 274 254 190 168 243 304 301 238 176 333 71 141 249 74 357 54 121 204 155 165 355 354 79 154 160 168 170 200 200 248 66 73 169 201 55 129 99
323 323 321 322 317 316 321 323 324 321 312 321 320 326 324 327 327 312 266 199 172 215 252 291 268 276 203 188 140 14 159 123 170 95 240 93 176 321 0 202 89 198 182 176 183 211 237 352 118 95 119 121 121 119
319 319 318 315 313 308 309 313 318 318 317 307 310 315 316 315 320 313 244 184 175 312 308 7 281 344 106 200 167 124 311 140 78 128 125 117 30 43 225 237 272 216 252 238 117 167 127 93 61 54 43 103 112 111
316 316 316 312 311 312 307 303 304 313 309 308 298 306 308 309 311 311 244 220 167 98 271 283 328 342 346 146 131 119 128 77 109 71 80 84 245 171 267 260 288 216 171 181 140 120 108 178 144 145 121 109 102 101
316 315 315 312 311 308 309 309 300 303 304 307 294 302 314 323 316 309 259 208 146 184 256 301 299 346 330 109 96 97 110 100 78 79 112 194 244 163 300 25 237 194 188 157 217 203 152 189 145 134 136 132 133 128
315 315 308 310 312 310 308 305 297 300 299 303 289 294 307 314 335 206 276 166 155 179 325 287 282 349 46 87 91 78 62 79 88 120 188 288 294 112 253 259 252 233 220 189 222 139 98 102 102 104 120 133 137 121
315 310 311 307 311 313 312 314 303 288 285 296 286 291 295 311 327 271 282 286 190 140 147 280 303 144 123 81 59 60 40 77 100 115 201 228 280 157 243 245 264 266 270 215 138 111 75 118 139 119 115 120 119 111
312 312 311 311 314 318 316 311 316 284 275 282 282 286 288 287 286 270 216 152 104 84 173 227 264 184 188 108 100 82 100 99 170 186 154 229 196 189 248 235 265 256 354 107 127 79 116 112 101 99 103 111 112 120
312 310 312 312 316 315 315 318 324 310 286 267 275 296 309 192 209 182 129 104 81 111 206 220 200 205 106 87 80 92 110 159 132 218 234 144 221 223 225 212 223 214 179 131 96 106 112 112 113 112 119 120 115 114
309 311 315 317 314 314 315 317 317 302 254 299 246 203 218 233 124 116 52 64 52 12 79 251 52 142 150 119 124 139 91 210 228 216 182 208 250 236 232 212 230 174 137 133 110 111 117 116 132 137 135 128 124 123
316 314 315 315 314 315 309 308 303 106 17 168 254 88 294 8 66 49 96 182 153 236 210 146 194 139 45 126 121 243 138 265 244 185 220 241 261 250 179 160 123 127 140 131 124 133 133 140 144 137 123 113 109 105
319 319 317 315 315 313 315 309 153 127 135 166 93 94 30 37 118 158 171 159 210 233 173 153 196 333 96 103 105 151 245 186 261 144 223 246 254 286 142 131 117 100 105 121 125 123 122 126 132 125 123 123 109 106
324 323 323 319 314 310 313 155 164 115 94 46 36 113 187 140 192 211 184 164 222 178 169 156 113 121 40 76 104 182 228 251 18 217 240 229 201 131 125 112 100 98 120 111 105 110 119 123 125 127 127 123 113 92
325 327 324 321 314 305 329 146 176 157 206 226 188 118 236 184 237 223 188 199 217 119 126 106 105 118 108 127 134 233 219 283 248 232 227 196 143 122 119 121 122 129 121 118 123 123 119 111 103 106 119 121 112 93
327 327 325 331 322 351 218 255 221 203 79 273 241 226 216 260 264 265 273 124 77 126 119 106 88 106 120 176 199 285 242 236 239 241 191 139 132 122 129 124 126 125 125 125 125 122 117 110 103 91 87 104 104 91
329 323 346 347 24 14 8 73 80 5 268 286 249 288 276 259 290 212 158 103 94 114 92 109 121 175 180 205 206 212 230 238 271 247 139 131 124 121 129 133 129 128 126 121 117 120 114 115 114 109 91 96 89 87
329 26 341 346 26 48 54 49 359 275 310 288 284 300 275 234 244 312 94 128 142 119 138 140 195 210 147 213 213 213 226 249 199 145 117 131 127 122 115 115 118 119 116 116 107 105 111 108 107 105 108 94 89 82
271 313 325 338 348 344 4 5 317 302 278 238 281 290 232 255 298 352 84 127 132 138 147 240 288 210 236 240 222 292 346 5 62 107 106 98 127 125 126 127 126 125 120 113 112 105 113 111 109 111 121 116 96 81
288 302 307 316 320 330 324 253 318 303 273 268 263 257 251 273 278 99 133 144 94 117 194 236 250 242 251 353 259 306 159 111 105 87 105 125 123 114 112 108 112 111 118 118 118 117 122 118 129 131 126 110 106 98
302 294 291 285 296 308 282 289 80 281 281 310 290 290 259 296 87 81 114 141 124 149 224 242 237 278 233 246 244 165 119 125 101 98 89 69 102 107 112 122 117 112 102 96 88 103 107 91 81 112 117 120 112 94
313 281 7 117 309 313 274 281 252 227 286 286 303 324 291 77 78 120 177 162 208 230 234 231 248 267 338 2 95 128 134 143 148 150 139 111 54 116 106 94 109 115 121 125 123 103 102 126 132 118 109 107 102 98
274 318 356 278 306 275 244 224 249 287 238 254 291 346 294 305 261 248 130 179 239 230 202 229 266 186 174 92 133 135 123 105 92 92 80 112 109 105 119 140 124 116 129 141 135 130 121 125 117 110 115 113 103 97
297 279 267 241 274 247 271 282 249 207 257 287 1 317 296 298 266 109 267 235 258 247 216 230 225 198 317 17 106 107 126 129 122 118 118 106 108 111 119 127 142 134 124 91 110 125 129 124 123 116 112 112 114 98
281 240 249 234 217 271 252 249 251 281 300 258 275 293 340 7 145 253 261 248 254 282 230 233 138 124 71 97 115 136 126 117 104 82 112 124 121 112 133 134 120 108 130 131 124 118 123 124 125 124 125 122 120 121
265 221 238 262 213 249 266 229 328 340 260 225 265 224 184 178 209 242 239 274 296 294 274 175 111 115 137 98 96 95 102 137 132 132 66 118 111 94 75 67 75 111 139 126 132 130 124 119 121 134 133 132 134 129
266 205 200 238 243 211 241 245 228 244 272 260 242 101 86 184 265 248 273 273 279 253 199 174 148 92 119 127 140 145 155 129 118 107 159 165 156 147 147 145 142 149 159 138 137 139 139 135 133 136 138 136 130 129
261 264 223 232 236 245 270 227 230 225 258 241 302 136 132 223 246 266 313 341 312 293 210 111 189 185 157 133 94 74 84 81 107 121 109 97 78 97 153 153 172 165 140 135 140 148 149 145 138 133 127 127 136 136
261 282 241 278 201 236 239 228 242 303 31 5 315 156 325 322 259 297 285 311 338 56 70 51 14 88 123 122 126 116 95 100 98 100 90 60 44 40 62 77 96 114 113 122 128 128 136 136 136 135 134 133 126 121
250 257 221 240 221 219 215 233 26 79 223 174 290 308 216 233 220 241 267 281 291 191 99 91 54 72 80 80 64 96 136 139 132 128 123 132 121 57 44 96 103 102 106 97 76 108 122 123 127 126 124 123 119 113
249 182 225 223 189 220 210 189 183 190 136 212 256 301 300 276 254 226 249 267 206 211 168 136 143 118 140 134 125 97 44 56 115 148 157 182 184 135 127 117 111 110 110 110 109 103 97 102 103 104 114 122 122 119
264 182 242 206 234 255 234 228 350 47 66 314 14 234 250 280 295 248 230 207 174 147 132 137 117 158 143 151 152 136 113 83 111 109 111 116 131 133 128 121 121 121 122 124 127 129 128 125 129 135 141 141 141 138
258 225 183 181 255 297 3 37 5 352 331 341 286 262 314 324 268 275 244 136 135 144 169 171 166 164 147 132 159 170 117 136 135 133 133 134 132 133 128 126 124 124 125 125 128 135 141 140 146 151 150 149 149 150
7 58 73 105 326 317 350 83 357 313 277 273 269 243 230 217 251 264 316 210 180 156 141 131 128 134 158 152 129 112 121 126 127 124 121 126 131 130 129 128 127 127 125 124 129 136 139 143 142 140 140 142 139 133